Date String (YYYY-MM-DD hh:mm:ss) UTC,Instrument flags,absolute air pressure of the measurement (hPa),sample flow rate (lpm),inlet stack bypass flow (lpm),air temperature of the measurement (°C),ambient temperature measured by the external sensor (°C),aerosol sample conditioner tube jacket temperature (°C),OPC LED temperature (°C),internal box temperature (°C),relative humidity of the measurement (%),span deviation,mass concentration of particles derived from Lorenz-Mie calculation of OPC scattering (μg/m³),mass concentration of particles derived from Lorenz-Mie calculation of OPC scattering (μg/m³),mass concentration of particles derived from Lorenz-Mie calculation of OPC scattering (μg/m³)
DateTimeUTC,F1_M11,P_M11,Q1_M11,Q2_M11,T1_M11,T2_M11,T3_M11,T4_M11,T5_M11,U1_M11,ZSPAN_M11,X0_M11,X2_M11,X1_M11
2024-04-26 18:00:00,SystemResetWarning,0816.0,4.99,000.00,025.8,025.1,000.0,034.0,027.6,015.0,0000.0,0006.06,0001.44,0000.97
2024-04-26 18:01:00,SystemResetWarning,0816.1,5.02,000.00,025.8,025.1,000.0,034.0,027.7,015.1,0000.0,0005.41,0001.47,0001.00
2024-04-26 18:02:00,SystemResetWarning,0816.0,5.00,000.00,025.8,025.2,000.0,034.0,027.7,015.0,0000.0,0005.29,0001.50,0001.02
2024-04-26 18:03:00,SystemResetWarning,0816.0,4.99,000.00,025.9,025.2,000.0,034.0,027.7,015.3,0000.0,0005.41,0001.57,0001.05
2024-04-26 18:04:00,SystemResetWarning,0815.9,4.99,000.00,025.8,024.2,000.0,034.1,027.1,015.0,0000.0,0005.51,0001.63,0001.06
2024-04-26 18:05:00,SystemResetWarning,0815.9,5.01,000.00,025.4,022.4,000.0,034.1,026.1,015.1,0000.0,0005.06,0001.64,0001.08
2024-04-26 18:06:00,SystemResetWarning,0815.8,5.01,000.00,025.1,022.1,000.0,034.1,025.9,015.7,0000.0,0004.16,0001.65,0001.09
2024-04-26 18:07:00,SystemResetWarning,0815.9,5.00,000.00,025.0,022.5,000.0,033.9,026.1,015.4,0000.0,0003.79,0001.71,0001.11
2024-04-26 18:08:00,SystemResetWarning,0815.9,5.00,000.00,025.0,022.9,000.0,033.8,026.3,015.6,0000.0,0003.71,0001.69,0001.13
2024-04-26 18:09:00,SystemResetWarning,0815.9,5.00,000.00,025.0,023.2,000.0,033.7,026.6,015.9,0000.0,0003.60,0001.72,0001.15
2024-04-26 18:10:00,SystemResetWarning,0815.8,4.98,000.00,025.1,023.5,000.0,033.7,026.7,015.7,0000.0,0003.27,0001.81,0001.17
2024-04-26 18:11:00,SystemResetWarning,0815.9,5.00,000.00,025.1,023.7,000.0,033.7,026.8,014.8,0000.0,0003.86,0001.88,0001.18
2024-04-26 18:12:00,SystemResetWarning,0815.8,5.00,000.00,025.1,023.9,000.0,033.7,026.9,015.0,0000.0,0004.03,0001.93,0001.19
2024-04-26 18:13:00,SystemResetWarning,0815.9,5.01,000.00,025.2,024.1,000.0,033.6,027.0,014.9,0000.0,0004.14,0001.94,0001.19
2024-04-26 18:14:00,SystemResetWarning,0815.8,5.01,000.00,025.2,024.3,000.0,033.6,027.1,015.0,0000.0,0004.21,0001.95,0001.21
2024-04-26 18:15:00,SystemResetWarning,0815.9,4.99,000.00,025.3,024.4,000.0,033.7,027.1,015.3,0000.0,0004.42,0001.93,0001.22
2024-04-26 18:16:00,SystemResetWarning,0815.9,5.00,000.00,025.3,024.5,000.0,033.7,027.2,015.0,0000.0,0005.51,0001.97,0001.22
2024-04-26 18:17:00,SystemResetWarning,0815.9,5.01,000.00,025.4,024.6,000.0,033.7,027.3,014.4,0000.0,0006.33,0001.99,0001.22
2024-04-26 18:18:00,SystemResetWarning,0815.8,4.99,000.00,025.4,024.7,000.0,033.7,027.3,014.2,0000.0,0006.44,0002.00,0001.22
2024-04-26 18:19:00,SystemResetWarning,0815.8,4.99,000.00,025.5,024.8,000.0,033.7,027.4,014.0,0000.0,0006.78,0002.07,0001.23
2024-04-26 18:20:00,SystemResetWarning,0815.8,5.01,000.00,025.5,024.8,000.0,033.7,027.4,014.4,0000.0,0007.06,0002.10,0001.24
2024-04-26 18:21:00,SystemResetWarning,0815.8,5.00,000.00,025.6,024.9,000.0,033.8,027.4,014.9,0000.0,0007.67,0002.11,0001.26
2024-04-26 18:22:00,SystemResetWarning,0815.8,4.99,000.00,025.6,025.0,000.0,033.8,027.5,014.7,0000.0,0007.29,0002.05,0001.28
2024-04-26 18:23:00,SystemResetWarning,0815.9,4.99,000.00,025.7,025.0,000.0,033.8,027.5,013.9,0000.0,0007.19,0002.01,0001.28
2024-04-26 18:24:00,SystemResetWarning,0815.8,5.01,000.00,025.7,025.1,000.0,033.9,027.6,013.2,0000.0,0007.28,0002.00,0001.27
2024-04-26 18:25:00,SystemResetWarning,0815.9,5.01,000.00,025.7,025.1,000.0,033.9,027.6,013.1,0000.0,0007.78,0002.02,0001.27
2024-04-26 18:26:00,SystemResetWarning,0815.9,4.99,000.00,025.8,025.2,000.0,033.9,027.7,013.3,0000.0,0007.77,0002.08,0001.27
2024-04-26 18:27:00,SystemResetWarning,0815.8,4.99,000.00,025.8,024.8,000.0,034.0,027.4,013.4,0000.0,0007.15,0002.05,0001.26
2024-04-26 18:28:00,SystemResetWarning,0815.8,5.01,000.00,025.5,022.9,000.0,034.0,026.3,014.0,0000.0,0006.23,0002.02,0001.26
2024-04-26 18:29:00,SystemResetWarning,0815.8,4.99,000.00,025.1,021.9,000.0,034.0,025.6,014.5,0000.0,0006.12,0001.99,0001.26
2024-04-26 18:30:00,SystemResetWarning,0815.8,5.02,000.00,024.9,022.3,000.0,033.9,025.7,014.6,0000.0,0005.80,0001.93,0001.26
2024-04-26 18:31:00,SystemResetWarning,0815.8,5.00,000.00,024.9,022.6,000.0,033.7,026.0,014.9,0000.0,0006.17,0001.93,0001.26
2024-04-26 18:32:00,SystemResetWarning,0815.8,5.00,000.00,024.9,022.9,000.0,033.6,026.3,015.4,0000.0,0005.56,0001.89,0001.25
2024-04-26 18:33:00,SystemResetWarning,0815.8,5.00,000.00,024.9,023.3,000.0,033.6,026.5,015.0,0000.0,0005.87,0001.95,0001.25
2024-04-26 18:34:00,SystemResetWarning,0815.8,4.98,000.00,025.0,023.5,000.0,033.6,026.7,015.3,0000.0,0005.95,0001.96,0001.27
2024-04-26 18:35:00,SystemResetWarning,0815.9,5.01,000.00,025.0,023.8,000.0,033.5,026.8,015.6,0000.0,0005.90,0002.01,0001.28
2024-04-26 18:36:00,SystemResetWarning,0815.8,5.02,000.00,025.1,024.0,000.0,033.5,026.9,016.0,0000.0,0005.10,0001.99,0001.29
2024-04-26 18:37:00,SystemResetWarning,0815.9,4.99,000.00,025.1,024.1,000.0,033.5,027.0,015.5,0000.0,0005.03,0001.98,0001.29
2024-04-26 18:38:00,SystemResetWarning,0815.8,4.99,000.00,025.2,024.3,000.0,033.5,027.0,015.7,0000.0,0005.14,0002.02,0001.30
2024-04-26 18:39:00,SystemResetWarning,0815.9,5.00,000.00,025.2,024.4,000.0,033.5,027.1,015.6,0000.0,0005.19,0002.05,0001.32
2024-04-26 18:40:00,SystemResetWarning,0815.8,5.00,000.00,025.3,024.5,000.0,033.6,027.2,014.6,0000.0,0005.29,0002.09,0001.33
2024-04-26 18:41:00,SystemResetWarning,0815.9,5.01,000.00,025.3,024.6,000.0,033.6,027.2,014.4,0000.0,0006.34,0002.12,0001.34
2024-04-26 18:42:00,SystemResetWarning,0815.9,4.99,000.00,025.4,024.7,000.0,033.6,027.3,014.8,0000.0,0005.42,0002.12,0001.35
2024-04-26 18:43:00,SystemResetWarning,0815.9,4.99,000.00,025.4,024.8,000.0,033.6,027.3,014.6,0000.0,0005.08,0002.14,0001.35
2024-04-26 18:44:00,SystemResetWarning,0815.9,5.01,000.00,025.5,024.8,000.0,033.7,027.4,014.5,0000.0,0004.78,0002.08,0001.34
2024-04-26 18:45:00,SystemResetWarning,0815.9,5.00,000.00,025.5,024.9,000.0,033.7,027.4,014.4,0000.0,0004.64,0002.07,0001.34
2024-04-26 18:46:00,SystemResetWarning,0816.0,5.01,000.00,025.6,025.0,000.0,033.7,027.5,014.8,0000.0,0004.50,0002.03,0001.35
2024-04-26 18:47:00,SystemResetWarning,0816.0,4.99,000.00,025.6,025.0,000.0,033.8,027.5,015.3,0000.0,0004.56,0002.03,0001.35
2024-04-26 18:48:00,SystemResetWarning,0816.0,4.99,000.00,025.7,025.1,000.0,033.8,027.6,014.9,0000.0,0004.59,0002.02,0001.36
2024-04-26 18:49:00,SystemResetWarning,0815.9,5.00,000.00,025.7,025.1,000.0,033.8,027.5,014.6,0000.0,0004.69,0002.04,0001.36
2024-04-26 18:50:00,SystemResetWarning,0815.9,5.00,000.00,025.6,023.7,000.0,033.9,026.8,014.6,0000.0,0004.78,0002.03,0001.35
2024-04-26 18:51:00,SystemResetWarning,0815.8,5.00,000.00,025.1,022.0,000.0,033.9,025.7,014.8,0000.0,0004.62,0001.97,0001.34
2024-04-26 18:52:00,SystemResetWarning,0815.8,5.01,000.00,024.9,022.0,000.0,033.9,025.6,015.4,0000.0,0003.65,0001.93,0001.34
2024-04-26 18:53:00,SystemResetWarning,0815.8,5.01,000.00,024.8,022.4,000.0,033.7,025.9,015.2,0000.0,0003.45,0001.93,0001.35
2024-04-26 18:54:00,SystemResetWarning,0815.9,5.00,000.00,024.8,022.7,000.0,033.6,026.1,015.6,0000.0,0003.38,0001.90,0001.36
2024-04-26 18:55:00,SystemResetWarning,0815.9,5.00,000.00,024.8,023.1,000.0,033.5,026.4,015.6,0000.0,0003.86,0002.06,0001.38
2024-04-26 18:56:00,SystemResetWarning,0815.8,5.00,000.00,024.9,023.4,000.0,033.5,026.6,015.5,0000.0,0003.95,0002.10,0001.38
2024-04-26 18:57:00,SystemResetWarning,0815.9,4.99,000.00,024.9,023.6,000.0,033.5,026.7,015.1,0000.0,0004.77,0002.08,0001.37
2024-04-26 18:58:00,SystemResetWarning,0815.8,4.99,000.00,025.0,023.8,000.0,033.4,026.8,014.7,0000.0,0004.67,0002.06,0001.37
2024-04-26 18:59:00,SystemResetWarning,0815.8,4.99,000.00,025.0,024.0,000.0,033.4,026.9,014.7,0000.0,0004.51,0002.05,0001.37
